TimeCEST,TemperatureF,Dew PointF,Humidity,Sea Level PressureIn,VisibilityMPH,Wind Direction,Wind SpeedMPH,Gust SpeedMPH,PrecipitationIn,Events,Conditions,WindDirDegrees,DateUTC
12:00 AM,66.2,53.6,64,30.21,-9999.0,ENE,3.5,-,N/A,,Clear,60,2013-07-17 22:00:00
12:30 AM,66.2,53.6,64,30.21,-9999.0,NE,6.9,-,N/A,,Clear,40,2013-07-17 22:30:00
1:00 AM,64.4,50.0,59,30.18,-9999.0,NE,5.8,-,N/A,,Clear,40,2013-07-17 23:00:00
1:30 AM,62.6,50.0,63,30.18,-9999.0,Variable,1.2,-,N/A,,Clear,0,2013-07-17 23:30:00
2:00 AM,62.6,48.2,59,30.18,-9999.0,Variable,2.3,-,N/A,,Clear,0,2013-07-18 00:00:00
2:30 AM,60.8,48.2,63,30.18,-9999.0,NE,5.8,-,N/A,,Clear,50,2013-07-18 00:30:00
3:00 AM,60.8,50.0,68,30.15,-9999.0,Variable,2.3,-,N/A,,Clear,0,2013-07-18 01:00:00
4:00 AM,59.0,51.8,77,30.15,-9999.0,NE,3.5,-,N/A,,Clear,40,2013-07-18 02:00:00
4:30 AM,59.0,51.8,77,30.15,-9999.0,ENE,4.6,-,N/A,,Clear,60,2013-07-18 02:30:00
5:00 AM,59.0,51.8,77,30.15,-9999.0,ENE,3.5,-,N/A,,Clear,60,2013-07-18 03:00:00
5:30 AM,59.0,51.8,77,30.12,-9999.0,ENE,3.5,-,N/A,,Clear,70,2013-07-18 03:30:00
6:00 AM,57.2,51.8,82,30.12,-9999.0,Calm,Calm,-,N/A,,Clear,0,2013-07-18 04:00:00
6:30 AM,55.4,51.8,88,30.12,-9999.0,Calm,Calm,-,N/A,,Clear,0,2013-07-18 04:30:00
7:00 AM,55.4,51.8,88,30.12,-9999.0,Variable,2.3,-,N/A,,Clear,0,2013-07-18 05:00:00
7:30 AM,55.4,51.8,88,30.12,-9999.0,Calm,Calm,-,N/A,,Clear,0,2013-07-18 05:30:00
8:00 AM,55.4,51.8,88,30.12,-9999.0,Calm,Calm,-,N/A,,Clear,0,2013-07-18 06:00:00
8:30 AM,60.8,53.6,77,30.12,-9999.0,East,4.6,-,N/A,,Clear,80,2013-07-18 06:30:00
9:00 AM,62.6,53.6,72,30.12,-9999.0,East,5.8,-,N/A,,Clear,90,2013-07-18 07:00:00
9:30 AM,64.4,55.4,73,30.12,-9999.0,East,8.1,-,N/A,,Clear,100,2013-07-18 07:30:00
10:00 AM,68.0,55.4,64,30.12,-9999.0,East,9.2,-,N/A,,Clear,100,2013-07-18 08:00:00
10:30 AM,69.8,57.2,64,30.12,-9999.0,East,10.4,-,N/A,,Clear,100,2013-07-18 08:30:00
11:00 AM,73.4,57.2,57,30.12,-9999.0,ESE,10.4,-,N/A,,Clear,110,2013-07-18 09:00:00
11:30 AM,75.2,57.2,53,30.09,-9999.0,ESE,10.4,-,N/A,,Clear,110,2013-07-18 09:30:00
12:00 PM,77.0,57.2,50,30.09,-9999.0,East,8.1,-,N/A,,Clear,100,2013-07-18 10:00:00
12:30 PM,80.6,57.2,45,30.09,-9999.0,East,5.8,-,N/A,,Clear,100,2013-07-18 10:30:00
1:00 PM,82.4,57.2,42,30.09,-9999.0,East,5.8,-,N/A,,Clear,100,2013-07-18 11:00:00
1:30 PM,84.2,57.2,40,30.09,-9999.0,ESE,4.6,-,N/A,,Clear,110,2013-07-18 11:30:00
2:00 PM,86.0,57.2,37,30.09,-9999.0,Variable,3.5,-,N/A,,Clear,0,2013-07-18 12:00:00
2:30 PM,87.8,53.6,31,30.09,-9999.0,Variable,2.3,-,N/A,,Clear,0,2013-07-18 12:30:00
3:00 PM,87.8,53.6,31,30.09,-9999.0,Variable,2.3,-,N/A,,Clear,0,2013-07-18 13:00:00
3:30 PM,87.8,53.6,31,30.06,-9999.0,Variable,3.5,-,N/A,,Clear,0,2013-07-18 13:30:00
4:00 PM,89.6,51.8,27,30.06,-9999.0,Variable,2.3,-,N/A,,Clear,0,2013-07-18 14:00:00
4:30 PM,91.4,51.8,26,30.06,-9999.0,Variable,1.2,-,N/A,,Clear,0,2013-07-18 14:30:00
5:00 PM,91.4,50.0,24,30.06,-9999.0,West,3.5,-,N/A,,Clear,280,2013-07-18 15:00:00
5:30 PM,91.4,48.2,23,30.04,-9999.0,West,4.6,-,N/A,,Clear,280,2013-07-18 15:30:00
6:00 PM,91.4,48.2,23,30.04,-9999.0,Variable,3.5,-,N/A,,Clear,0,2013-07-18 16:00:00
6:30 PM,91.4,46.4,21,30.04,-9999.0,Variable,2.3,-,N/A,,Clear,0,2013-07-18 16:30:00
7:00 PM,91.4,46.4,21,30.04,-9999.0,NW,3.5,-,N/A,,Clear,310,2013-07-18 17:00:00
7:30 PM,87.8,59.0,38,30.04,-9999.0,NNE,3.5,-,N/A,,Clear,20,2013-07-18 17:30:00
8:00 PM,86.0,60.8,43,30.04,-9999.0,North,6.9,-,N/A,,Clear,10,2013-07-18 18:00:00
8:30 PM,84.2,62.6,48,30.04,-9999.0,North,5.8,-,N/A,,Clear,10,2013-07-18 18:30:00
9:00 PM,82.4,60.8,48,30.04,-9999.0,NNE,5.8,-,N/A,,Clear,20,2013-07-18 19:00:00
9:30 PM,80.6,55.4,42,30.04,-9999.0,NE,6.9,-,N/A,,Clear,50,2013-07-18 19:30:00
10:00 PM,77.0,55.4,47,30.04,-9999.0,ENE,4.6,-,N/A,,Clear,60,2013-07-18 20:00:00
10:30 PM,75.2,55.4,50,30.06,-9999.0,ENE,4.6,-,N/A,,Clear,70,2013-07-18 20:30:00
11:00 PM,73.4,55.4,53,30.06,-9999.0,East,6.9,-,N/A,,Clear,90,2013-07-18 21:00:00
11:30 PM,71.6,55.4,57,30.06,-9999.0,East,4.6,-,N/A,,Clear,80,2013-07-18 21:30:00